{"data":{"norad_id":52132,"epoch":"2026-09-20T00:38:45.298752Z","epoch_age_seconds":97020,"freshness":"FRESH","line1":"1 52132U 22029AW  26263.02691318  .00000005  00000+0  11289-4 0  9996","line2":"2 52132  53.1604 269.7020 0001183  87.1914 272.9224 15.34390712250362","mean_motion":15.34390712,"eccentricity":0.0001183,"inclination_deg":53.1604,"raan_deg":269.702,"arg_perigee_deg":87.1914,"mean_anomaly_deg":272.9224,"bstar":1.1289e-5,"rev_number":25036,"period_min":93.848326162183,"perigee_km":461.92157157351,"apogee_km":463.54012090593,"semimajor_km":6840.8678462397,"source":"CELESTRAK","updated_at":"2026-09-20T09:00:39.991572Z"}}